Weather in Ust-Katun

Russia / Altai Krai     52°27′23″N   85°10′04″E
temp.,
°C
wind,
m/s
gust,
m/s
humid.,
%
clouds,
%
prec.,
mm/h
press.,
hPa
HPBL,
m
14 august, sun
sun1401:00+16wsw5129378 0.6 1010306
04:00+15sw411960 0.3 1010307
07:00+14sw4149041 0.3 1011376
10:00+19wsw6136579 0.0 1010785
13:00+24wsw10133728 0.0 10092300
16:00+20w7135734 0.1 10101014
19:00+22wsw61050100 0.2 10081028
22:00+17wsw467060 0.0 1009110
15 august, mon
mon1501:00+14w3560100 0.1 101094
04:00+15wsw376099 0.0 1010192
07:00+14w496925 0.0 1011353
10:00+18w58471 0.0 10121243
13:00+21w78325 0.0 10112342
16:00+23w682765 0.0 10102975
19:00+21nw573368 0.0 10101968
22:00+14nnw3551100 0.0 101281
16 august, tue
tue1601:00+13n125597 0.0 101360
04:00+12nnw235999 0.0 101367
07:00+12nnw1260100 0.0 101384
10:00+15wnw334653 0.0 10141062
13:00+19w673438 0.0 10132457
16:00+20wnw77275 0.0 10122448
19:00+18nw573014 0.0 10132366
22:00+11nw124481 0.0 101410
17 august, wed
wed1701:00+11nne1248100 0.0 101439
04:00+11ene1256100 0.0 101348
07:00+8n227255 0.0 101350
10:00+14nw224658 0.0 1013826
13:00+18w3533100 0.0 10112219
16:00+19w5729100 0.0 10102620
19:00+16w7838100 0.0 10111961
22:00+12ssw366958 0.1 1012308
18 august, thu
thu1801:00+9sw3987100 0.3 1012281
04:00+7wsw6119683 0.1 1013388
07:00+7wsw4119412 0.5 1014421
10:00+12w57675 0.1 1015937
13:00+14wsw575288 0.8 10141745
16:00+17w463494 0.1 10132478
19:00+15nw443642 0.1 10131840
22:00+9nnw336156 0.0 101531